Hourly Data Report for June 01, 2020

WESTERN HEAD
NOVA SCOTIA
Current Station Operator: ECCC - MSC

43°59'24.070" N
64°39'51.008" W
10.10 m
8206240
71411
WWE

Download Data

Hourly Data (June 2020)
Hourly Data Report for June 1, 2020
TIME
LST
Temp Definition
°C
Dew Point Definition
°C
Rel Hum Definition
%
Precip. Amount Definition
mm

Wind Dir Definition
10's deg

Wind Spd Definition
km/h
Visibility Definition
km
Stn Press Definition
kPa
Hmdx Definition


Wind Chill Definition


Weather Definition


00:00 10.4 5.5 72 0.0 32 19   101.05     LegendNANA
01:00 9.5 5.1 74 0.0 32 20   101.09     LegendNANA
02:00 8.4 4.6 77 0.0 32 21   101.13     LegendNANA
03:00 7.5 3.9 78 0.0 32 20   101.15     LegendNANA
04:00 6.8 3.6 80 0.0 31 20   101.17     LegendNANA
05:00 5.8 3.1 83 0.0 31 19   101.22     LegendNANA
06:00 7.0 2.5 73 0.0 31 22   101.24     LegendNANA
07:00 8.7 1.9 62 0.0 32 22   101.25     LegendNANA
08:00 11.0 2.6 56 0.0 31 19   101.27     LegendNANA
09:00 11.7 1.6 50 0.0 32 17   101.25     LegendNANA
10:00 13.5 1.1 43 0.0 30 20   101.26     LegendNANA
11:00 13.6 0.8 41 0.0 32 17   101.26     LegendNANA
12:00 14.8 0.2 37 0.0 31 19   101.22     LegendNANA
13:00 16.1 0.7 35 0.0 31 18   101.18     LegendNANA
14:00 15.9 -0.6 32 0.0 31 17   101.16     LegendNANA
15:00 16.5 -1.9 28 0.0 33 15   101.14     LegendNANA
16:00 16.4 -2.1 28 0.0 31 16   101.10     LegendNANA
17:00 15.6 -2.3 29 0.0 33 14   101.10     LegendNANA
18:00 14.4 -2.2 32 0.0 32 14   101.09     LegendNANA
19:00 13.2 -1.8 35 0.0 31 16   101.16     LegendNANA
20:00 10.9 -0.7 45 0.0 30 16   101.19     LegendNANA
21:00 9.3 -0.2 51 0.0 31 14   101.23     LegendNANA
22:00 8.8 0.0 54 0.0 30 15   101.18     LegendNANA
23:00 8.3 0.4 57 0.0 30 16   101.13     LegendNANA

Notes on Data Quality.

Legend

  • E = Estimated
  • M = Missing
  • NA = Not Available*
  • [empty] = Indicates an unobserved value
Date modified: